Simultaneous Nadir Overpasses (SNOs) Predictions

Prediction of SNOs between NOAA-19 and TERRA Satellite Orbit:

Table of predicted SNOs for the next 14.0 days since TLE Epoch: 1/27/2012
Index Date Time (NOAA-19) NOAA-19 Lat,Lon TERRA Lat,Lon Distance(km) Time Diff (sec)
1 01/29/2012 08:28:36 69.91, 50.75 69.77, 52.90 83.95 67
2 01/29/2012 09:19:20 -68.92,-140.57 -68.94,-140.57 2.77 6
3 01/29/2012 10:10:12 68.35, 27.44 68.39, 26.39 43.52 71
4 01/31/2012 12:23:10 -72.27, 168.19 -72.20, 178.00 332.59 38
5 01/31/2012 13:13:09 69.01, -19.14 69.04, -19.14 2.66 62
6 01/31/2012 14:04:10 -68.89, 148.27 -68.87, 148.28 1.57 28
7 01/31/2012 14:54:38 67.06, -42.16 67.08, -46.17 173.64 59
8 02/02/2012 17:07:32 -70.81, 99.65 -70.72, 104.50 177.92 58
9 02/02/2012 17:57:58 68.96, -90.27 68.95, -90.31 1.46 29
10 02/02/2012 18:48:59 -68.80, 77.18 -68.79, 77.12 2.43 61
11 02/02/2012 19:38:59 65.48,-111.63 65.52,-118.81 330.87 38
12 02/04/2012 21:51:58 -69.53, 30.45 -69.42, 31.59 46.31 70
13 02/04/2012 22:42:47 68.90,-161.40 68.91,-161.42 1.50 5
14 02/04/2012 23:33:34 -67.97, 7.06 -68.03, 5.14 80.19 68
15 02/07/2012 01:46:27 71.80, 148.25 71.72, 156.35 282.12 45
16 02/07/2012 02:36:38 -68.97, -39.96 -68.99, -40.03 3.07 52
17 02/07/2012 03:27:36 68.84, 127.47 68.86, 127.46 2.35 39
18 02/07/2012 04:17:59 -66.60, -62.51 -66.64, -67.46 218.34 54
19 02/09/2012 06:30:50 70.39, 79.48 70.30, 83.06 134.52 62
20 02/09/2012 07:21:28 -68.94,-111.13 -68.93,-111.17 2.28 17
21 02/09/2012 08:12:25 68.78, 56.34 68.80, 56.32 2.40 73




NCC Satellite Simultaneous Nadir Overpasses (SNOs) Prediction Service
